Location: Bruderhein
(53.8035°N, 112.9265°W)
Time: 01:51:03
(UTC+00:00)

BEESAT - Pass Details

Date: 08 April 2023
Orbit: 696 x 706 km, 98.5° (Epoch: 31 May)

Event Time Altitude Azimuth Distance (km) Brightness Sun altitude
Rises 05:16:26 0° 14° (NNE) 3,113 ? -22.6°
Reaches altitude 10° 05:18:43 10° 12° (NNE) 2,188 ? -22.8°
Maximum altitude 05:23:28 68° 290° (WNW) 763 ? -23.2°
Enters shadow 05:25:31 33° 217° (SW) 1,168 ? -23.4°
